SCP
2 2 2 1 1 1 1 1 1 1 1 1 1 1 0 0 0 1 1 1 1 1 1 2 1 1 1 1 0 0 0 0 0 0 0 0 0 0 0 0 1 1 1
2 2 2 1 1 1 1 1 1 1 1 2 1 1 0 0 0 1 1 1 1 1 1 1 1 1 1 1 1 0 0 0 0 0 0 0 0 0 0 0 1 1 1
2 2 1 1 1 1 1 1 1 1 2 2 2 1 1 1 1 1 1 1 1 1 1 1 1 1 1 1 1 1 1 1 1 1 1 0 0 0 0 0 0 1 1
1 1 1 1 1 1 1 1 1 1 2 3 3 2 1 1 1 1 1 1 1 1 1 1 1 1 1 1 1 1 1 1 1 1 1 1 0 0 0 0 0 0 0
1 1 1 1 2 1 1 1 2 2 3 3 3 3 2 1 1 1 1 1 1 1 1 1 1 1 1 1 1 1 2 2 2 2 1 1 0 0 0 0 0 0 0
2 1 1 2 2 2 2 2 2 3 3 4 4 3 2 2 1 1 1 1 1 1 1 1 1 1 2 2 2 2 2 3 3 3 3 2 1 1 1 1 1 1 1
2 2 2 2 2 2 3 3 3 3 4 4 3 2 2 1 1 2 2 1 1 1 1 1 1 2 2 2 2 3 3 3 4 4 4 3 2 1 1 1 1 1 1
2 2 2 2 2 2 3 3 3 4 4 3 3 2 2 2 2 2 2 2 2 1 1 1 1 2 2 2 3 3 3 3 3 4 4 4 3 2 2 2 2 2 2
2 2 2 2 2 2 3 4 4 3 3 3 2 2 2 2 2 2 3 3 2 2 2 2 2 2 2 2 2 3 3 3 3 3 3 3 3 3 3 3 4 3 3
2 2 2 2 2 2 3 4 4 4 4 4 3 3 2 2 2 3 3 3 3 3 2 2 2 2 1 1 2 2 2 2 2 2 2 2 2 3 4 5 5 4 3
2 2 2 2 2 2 2 3 3 4 5 5 4 3 2 2 3 3 3 4 4 4 3 3 3 2 1 1 1 1 1 2 2 2 2 2 2 3 4 5 4 4 3
1 1 2 2 2 2 2 2 2 3 4 4 3 3 2 2 3 4 4 4 4 4 3 3 2 2 2 1 1 1 1 1 2 2 2 2 2 3 4 4 3 3 3
1 1 2 2 2 2 2 2 2 2 2 2 2 2 2 2 3 4 5 4 4 4 3 3 2 2 2 1 1 1 1 1 2 2 2 2 2 3 3 2 2 2 3
1 1 2 2 2 2 2 2 2 2 2 2 2 2 2 2 3 4 5 5 4 4 3 2 2 2 2 1 1 1 1 1 1 1 1 2 2 2 2 2 1 1 2
1 1 2 2 2 2 2 2 2 2 2 2 2 2 2 2 2 3 4 4 4 4 3 3 2 2 2 1 1 1 1 1 1 1 1 1 1 1 1 1 1 1 1
1 1 2 3 2 2 2 3 2 2 2 3 3 2 2 2 2 2 3 4 4 4 4 3 2 2 2 1 0 0 1 1 1 1 1 1 1 0 0 0 0 0 1
1 1 2 3 3 2 2 3 3 3 3 3 3 2 2 2 2 2 3 3 4 4 4 3 3 2 1 0 0 0 0 1 1 1 1 1 1 1 0 0 0 0 0
1 1 2 3 3 2 2 3 3 3 3 3 2 1 1 2 2 2 3 3 3 4 4 4 3 2 1 0 0 0 0 0 0 0 1 1 1 1 1 1 1 1 1
1 1 2 3 4 3 3 3 4 4 4 3 2 1 1 1 2 2 3 3 3 4 4 4 3 2 2 1 0 0 0 0 0 0 0 0 1 1 1 1 1 1 1
1 2 2 3 4 4 3 3 4 4 4 3 2 1 1 1 2 2 3 3 4 4 4 4 4 3 3 1 0 0 0 1 0 0 0 0 0 0 0 1 1 1 1
2 3 3 4 4 4 4 4 4 4 3 2 1 1 2 2 2 3 3 4 4 5 5 5 5 4 3 2 1 0 1 1 1 1 0 0 0 0 0 0 1 1 1
3 4 5 5 5 5 5 4 4 3 2 2 2 2 3 3 3 4 4 5 6 6 6 6 5 5 4 3 1 0 1 1 1 1 0 0 0 0 0 0 0 0 0
3 4 6 6 6 6 5 5 4 3 2 2 3 4 4 5 5 6 6 7 7 8 8 7 7 6 5 3 2 1 0 1 1 1 0 0 0 0 0 0 0 0 0
2 4 5 6 6 6 5 4 4 3 3 3 4 6 7 8 9 9 8 9 9 9 9 8 7 6 6 4 3 1 0 0 0 0 0 0 0 0 0 0 0 0 0
2 3 4 5 5 4 4 3 3 3 4 5 7 9 10 11 12 11 10 9 9 9 8 7 6 6 5 4 3 1 1 0 0 0 0 0 0 0 0 0 0 0 0
3 3 4 4 3 3 3 3 2 3 5 7 9 10 11 12 13 12 10 7 7 6 6 6 6 5 4 3 2 1 1 0 0 0 1 1 1 1 1 1 0 1 1
Wind_Speed
3 3 3 4 4 3 3 3 3 2 2 2 1 1 0 0 0 1 1 1 1 1 1 1 1 1 1 1 1 1 1 1 1 1 2 2 1 1 1 1 1 2 2
2 3 3 4 4 3 3 3 3 2 2 2 2 1 1 0 0 0 1 1 1 1 2 2 1 1 1 1 1 1 1 1 0 1 0 2 3 2 1 0 1 1 1
6 5 5 4 4 4 4 3 3 3 2 2 1 1 1 1 1 1 1 1 1 2 1 1 1 1 1 2 2 1 2 1 1 1 2 1 2 2 2 1 1 1 1
6 5 5 5 5 4 3 3 3 3 2 2 2 2 2 1 2 1 1 1 1 1 1 1 1 2 2 2 2 2 2 2 2 1 1 1 2 1 2 2 1 1 1
6 6 6 6 5 4 4 3 2 2 2 2 3 2 1 1 1 1 1 1 1 1 1 1 1 1 1 2 2 1 2 2 2 2 1 1 1 1 1 2 2 2 1
6 6 5 4 3 3 3 3 3 2 2 2 2 3 2 2 1 1 1 2 1 1 1 1 1 1 1 2 2 2 2 2 2 1 1 2 2 2 2 3 2 2 2
4 5 5 5 4 4 4 3 4 3 3 3 2 2 2 2 3 3 2 2 1 1 2 1 1 1 2 2 1 1 1 2 2 2 1 2 2 1 2 2 2 2 2
3 4 5 5 5 4 4 4 4 3 3 2 2 2 2 2 2 2 2 2 2 2 2 1 2 2 1 1 1 1 1 1 1 2 1 1 1 2 2 2 2 1 1
3 3 4 4 4 4 4 4 4 3 2 2 2 1 2 2 2 2 2 2 2 2 1 1 1 1 1 1 1 1 1 1 1 2 2 2 1 1 2 2 2 2 2
2 2 2 3 4 3 3 3 4 4 3 2 2 2 2 2 2 1 2 2 2 1 1 0 0 0 0 0 1 1 1 1 1 1 1 1 1 1 1 1 2 2 3
3 3 2 2 2 2 2 2 2 2 2 2 2 1 2 1 1 1 2 2 1 1 1 1 1 0 0 0 1 1 1 1 1 1 1 1 1 1 1 0 1 1 2
2 2 2 2 2 2 2 1 1 2 2 1 1 1 1 1 1 1 1 1 1 1 1 1 0 0 0 0 0 1 0 1 1 1 1 2 1 1 1 0 1 1 2
1 1 2 2 2 2 2 1 1 1 1 1 1 0 0 0 1 1 1 0 0 1 1 0 0 1 1 1 1 1 1 1 1 1 1 2 1 1 1 1 1 1 1
1 2 2 2 1 1 2 2 1 1 1 1 1 0 0 1 1 1 1 1 0 0 0 0 0 1 0 1 1 0 1 1 1 1 1 1 1 1 1 1 1 1 1
2 2 3 2 2 2 2 2 1 1 1 1 1 1 1 1 0 0 1 1 0 0 0 0 0 1 1 1 1 0 0 0 1 1 1 1 1 0 0 1 1 1 1
3 3 3 3 3 4 4 3 2 1 1 1 1 1 1 0 0 0 0 0 1 0 0 0 0 1 1 1 0 1 0 0 0 1 2 1 1 2 1 1 0 1 1
4 3 4 4 4 4 4 3 2 1 1 1 1 0 0 0 1 0 1 0 1 0 0 1 1 1 2 1 1 1 1 1 1 1 1 1 1 1 1 2 2 2 2
3 3 3 3 3 3 2 2 1 2 2 1 1 1 1 1 0 0 1 1 1 0 1 1 1 1 2 2 2 1 0 0 1 1 1 1 2 2 1 1 2 2 2
3 3 3 3 3 3 3 2 2 1 1 1 1 1 1 1 1 1 2 2 1 1 1 1 1 1 2 2 1 1 1 1 1 1 1 1 2 3 1 0 2 3 3
2 2 2 1 2 2 3 3 2 2 2 3 2 2 1 1 2 2 2 2 1 2 1 1 1 2 2 2 1 1 1 0 1 2 2 2 2 3 1 1 1 2 4
2 1 2 2 2 2 3 3 3 4 4 2 2 2 2 2 2 1 1 1 1 1 1 1 2 2 2 2 2 2 2 2 2 2 2 3 3 3 2 2 2 4 3
1 2 2 2 1 1 3 3 4 4 2 2 2 2 1 1 1 1 1 1 1 1 1 1 2 2 2 2 2 3 3 3 3 3 2 3 3 3 2 2 2 3 2
1 1 2 2 1 1 2 3 4 2 1 1 1 1 1 1 1 1 1 1 1 1 1 2 2 2 2 2 2 2 2 3 2 2 3 4 3 2 2 2 3 2 1
1 1 1 1 2 2 2 2 2 1 1 1 1 1 1 1 1 1 1 2 2 2 2 2 2 2 2 2 2 1 1 2 2 2 2 2 2 1 2 2 2 1 1
1 0 1 2 2 1 2 2 1 1 1 1 1 1 1 1 1 1 1 2 3 4 3 3 3 3 3 4 4 2 2 2 2 1 1 1 1 1 2 2 2 2 1
1 1 1 2 2 1 2 2 1 2 2 1 1 1 1 1 1 1 2 2 3 3 4 4 3 3 4 4 3 3 3 2 2 2 1 2 2 2 3 3 3 2 3
Wind_Direction
204 171 166 155 144 145 154 167 161 164 150 142 139 141 223 258 289 247 234 230 229 222 207 239 240 216 214 255 260 247 258 284 300 337 330 321 305 288 281 275 265 261 249
180 176 172 160 158 165 170 172 174 173 176 168 155 161 168 212 221 322 334 277 254 249 239 220 232 228 218 254 267 234 233 290 44 134 6 336 339 340 344 292 249 267 259
193 191 183 178 170 175 182 188 184 184 182 162 120 91 65 29 16 343 325 307 278 269 263 245 225 223 219 239 244 236 215 244 270 176 164 168 261 310 324 335 330 317 277
193 187 182 182 187 189 182 184 182 181 176 156 150 150 162 211 241 247 263 293 305 297 287 267 242 228 222 236 248 223 215 212 238 236 211 196 180 203 308 318 327 320 289
194 192 191 192 192 180 176 180 178 180 176 165 168 165 194 233 264 278 286 293 312 316 305 266 254 250 243 244 244 222 204 205 215 212 193 199 206 203 216 283 315 333 317
199 196 190 177 183 174 170 172 176 198 188 184 186 187 201 222 238 258 264 281 290 290 297 257 253 270 266 243 243 241 208 212 223 220 197 185 195 198 198 239 270 287 296
193 186 182 180 184 185 182 180 182 208 206 199 204 210 218 220 228 238 239 258 274 271 267 251 233 245 256 254 244 240 223 218 213 213 222 218 218 196 193 215 247 264 287
178 183 186 182 189 192 188 184 189 210 211 210 222 218 217 220 232 232 227 236 247 260 268 256 248 244 246 250 223 232 236 218 224 222 211 220 233 211 210 207 209 249 288
181 181 177 176 186 191 196 194 193 207 214 215 218 226 224 222 227 227 226 237 247 253 271 277 276 287 279 250 207 222 245 221 231 228 220 222 241 221 223 218 209 205 246
159 161 174 184 186 187 189 188 187 197 203 200 210 222 227 228 230 225 242 251 263 271 277 303 307 6 1 213 197 219 237 207 244 231 227 256 266 265 254 236 224 212 212
169 170 170 166 151 129 148 185 189 187 196 203 203 210 233 228 223 231 251 256 272 275 267 263 259 242 136 207 185 199 175 197 250 273 245 266 263 264 279 258 229 229 213
173 158 140 127 128 124 124 139 165 198 210 199 188 198 209 204 217 248 265 260 272 282 269 267 277 280 317 296 224 236 217 213 246 272 271 278 271 283 276 239 229 231 228
167 134 120 132 149 153 144 141 143 201 204 113 104 114 162 182 236 260 277 291 308 318 346 50 20 319 312 304 273 220 220 235 247 250 245 261 255 275 283 246 248 255 255
191 167 165 171 175 169 159 156 154 137 102 96 103 44 287 239 243 270 301 308 288 307 323 333 266 263 282 328 309 218 196 232 260 257 248 247 231 244 250 241 257 260 270
203 196 192 185 179 171 176 184 189 160 137 131 155 242 265 252 268 314 316 318 310 281 242 123 319 295 262 292 302 263 215 303 324 321 306 284 282 273 253 267 262 252 242
213 203 196 189 192 194 196 196 199 194 166 165 223 281 341 353 286 266 300 359 328 297 105 180 278 312 303 312 293 214 210 233 308 320 325 313 337 331 322 324 293 204 222
217 199 199 200 209 215 202 199 199 176 169 190 223 252 284 306 312 349 39 340 294 291 254 298 346 319 308 319 305 218 189 193 213 245 304 317 335 341 335 321 321 302 277
217 213 210 210 220 219 205 196 166 165 172 181 224 254 265 274 309 28 293 265 246 205 230 270 295 299 311 338 2 3 166 198 284 268 238 274 320 327 324 313 329 311 294
213 212 212 212 216 210 193 166 173 177 176 217 247 250 237 249 253 257 274 280 263 255 260 258 264 278 302 316 335 61 31 13 326 312 325 273 280 301 299 311 311 318 317
209 202 194 182 196 219 179 163 182 191 217 229 244 255 233 225 241 243 254 270 251 239 240 267 268 260 276 279 239 170 184 244 292 305 298 275 276 295 259 231 265 298 302
197 174 157 188 216 206 169 177 195 218 230 227 230 248 240 234 241 247 247 256 246 241 274 282 295 284 277 269 238 201 199 213 235 260 278 284 291 287 267 228 240 261 276
165 170 179 224 246 189 173 197 228 237 226 205 213 245 265 270 265 250 270 247 204 230 272 286 307 306 298 281 257 230 217 210 211 239 262 279 289 289 276 246 271 274 280
214 204 190 220 268 211 187 212 243 240 209 200 221 241 269 284 235 218 233 235 220 225 250 250 269 291 303 298 286 260 234 221 219 246 260 278 286 286 278 280 284 280 278
252 231 169 208 268 263 238 240 256 205 182 217 237 221 208 259 260 221 206 205 217 226 237 243 251 266 282 284 288 279 250 238 243 263 279 284 286 282 283 296 291 269 258
318 217 201 226 254 277 283 283 254 178 175 201 243 246 237 243 265 267 235 230 231 221 218 229 227 232 257 264 264 253 246 238 236 222 251 280 284 289 296 301 296 281 275
302 286 270 250 263 272 275 283 261 197 176 201 228 242 259 259 251 273 311 307 267 261 243 233 232 247 252 270 273 267 262 244 196 166 230 261 269 269 273 279 283 273 271